Alpine, TX

3:09 AM CDT on May 27, 2017 (GMT -0500)
Alpine

Weather History for KE38 - October, 2013

Change the Weather History Date:

Friday, October 11, 2013

  Actual Average (KMRF) Record (KMRF)
Temperature  
Mean Temperature 67 °F -  
Max Temperature 83 °F 73 °F 89 °F (1998)
Min Temperature 51 °F 44 °F 37 °F (2000)
Cooling Degree Days 2    
Growing Degree Days 17 (Base 50)    
Moisture  
Dew Point 33 °F    
Average Humidity 31    
Maximum Humidity 54    
Minimum Humidity 14    
Precipitation  
Precipitation 0.00 in - - ()
Sea Level Pressure  
Sea Level Pressure 30.07 in    
Wind  
Wind Speed 8 mph (WSW)    
Max Wind Speed 18 mph    
Max Gust Speed 23 mph    
Visibility 10 miles    
Events      
Averages and records for this station are not official NWS values.
T = Trace of Precipitation, MM = Missing Value Source: NWS Daily Summary

Daily Weather History Graph

Daily Weather History Graph

Search for Another Location

Airport or City:

Trip Planner

Search our weather history database for the weather conditions in past years. The results will help you decide how hot, cold, wet, or windy it might be!

Date:

Astronomy

Oct. 11, 2013 Rise Set
Actual Time 7:54 AM CDT 7:27 PM CDT
Civil Twilight 7:30 AM CDT 7:51 PM CDT
Nautical Twilight 7:02 AM CDT 8:19 PM CDT
Astronomical Twilight 6:34 AM CDT 8:47 PM CDT
Moon 2:25 PM CDT (10/11) 12:23 AM CDT (10/11)
Length of Visible Light 12h 21m
Length of Day
11h 33m
Waxing Crescent, 47% of the Moon is Illuminated
Oct 11
Waxing Crescent
Oct 11
First Quarter
Oct 18
Full
Oct 26
Last Quarter
Nov 3
New

Hourly Weather History & Observations

Time (CDT) Temp. Dew Point Humidity Pressure Visibility Wind Dir Wind Speed Gust Speed Precip Events Conditions
12:15 AM 68.7 °F 50.7 °F 53% 30.02 in 10.0 mi WSW 8.1 mph - N/A   Mostly Cloudy
12:35 AM 67.3 °F 45.3 °F 45% 30.01 in 10.0 mi SSW 10.4 mph - N/A   Scattered Clouds
12:55 AM 67.6 °F 46.2 °F 46% 30.02 in 10.0 mi SW 9.2 mph - N/A   Clear
1:15 AM 63.9 °F 44.8 °F 50% 30.02 in 10.0 mi WSW 8.1 mph - N/A   Clear
1:55 AM 58.8 °F 37.8 °F 46% 30.02 in 10.0 mi WSW 9.2 mph - N/A   Clear
2:15 AM 59.0 °F 35.2 °F 41% 30.02 in 10.0 mi SW 8.1 mph - N/A   Clear
2:35 AM 58.1 °F 33.3 °F 39% 30.03 in 10.0 mi WSW 5.8 mph - N/A   Clear
2:55 AM 55.8 °F 33.3 °F 43% 30.03 in 10.0 mi SW 5.8 mph - N/A   Clear
3:15 AM 56.8 °F 32.9 °F 40% 30.04 in 10.0 mi West 3.5 mph - N/A   Clear
3:35 AM 55.6 °F 32.7 °F 42% 30.03 in 10.0 mi WSW 5.8 mph - N/A   Clear
3:55 AM 57.0 °F 33.1 °F 40% 30.03 in 10.0 mi WSW 6.9 mph - N/A   Clear
4:15 AM 54.1 °F 33.4 °F 46% 30.04 in 10.0 mi WSW 6.9 mph - N/A   Clear
4:35 AM 54.5 °F 33.8 °F 46% 30.04 in 10.0 mi WSW 8.1 mph - N/A   Clear
4:55 AM 54.7 °F 33.8 °F 45% 30.04 in 10.0 mi SW 8.1 mph - N/A   Clear
5:15 AM 54.5 °F 33.4 °F 45% 30.05 in 10.0 mi WSW 9.2 mph - N/A   Clear
5:35 AM 54.5 °F 34.0 °F 46% 30.06 in 10.0 mi SW 9.2 mph - N/A   Clear
5:55 AM 54.0 °F 34.2 °F 47% 30.06 in 10.0 mi WSW 9.2 mph - N/A   Clear
6:15 AM 53.6 °F 34.5 °F 48% 30.07 in 10.0 mi WSW 8.1 mph - N/A   Clear
6:35 AM 51.8 °F 34.3 °F 51% 30.07 in 10.0 mi WSW 10.4 mph - N/A   Clear
6:55 AM 54.9 °F 34.9 °F 47% 30.08 in 10.0 mi WSW 9.2 mph - N/A   Clear
7:15 AM 54.1 °F 35.2 °F 49% 30.09 in 10.0 mi WSW 10.4 mph - N/A   Clear
7:35 AM 54.5 °F 35.4 °F 49% 30.09 in 10.0 mi SW 8.1 mph - N/A   Clear
7:55 AM 53.8 °F 35.4 °F 50% 30.10 in 10.0 mi WSW 6.9 mph - N/A   Clear
8:15 AM 51.8 °F 35.4 °F 54% 30.11 in 10.0 mi WSW 4.6 mph - N/A   Clear
8:35 AM 55.2 °F 36.1 °F 49% 30.11 in 10.0 mi SSW 3.5 mph - N/A   Clear
8:55 AM 61.9 °F 36.9 °F 39% 30.11 in 10.0 mi SSW 3.5 mph - N/A   Clear
9:15 AM 67.5 °F 37.8 °F 34% 30.11 in 10.0 mi WSW 6.9 mph - N/A   Clear
9:35 AM 69.1 °F 37.9 °F 32% 30.12 in 10.0 mi SW 5.8 mph - N/A   Clear
9:55 AM 70.2 °F 38.1 °F 31% 30.12 in 10.0 mi West 3.5 mph - N/A   Clear
10:15 AM 71.4 °F 37.8 °F 29% 30.13 in 10.0 mi West 8.1 mph - N/A   Clear
10:35 AM 72.7 °F 36.5 °F 27% 30.13 in 10.0 mi West 11.5 mph - N/A   Clear
10:55 AM 73.9 °F 36.0 °F 25% 30.13 in 10.0 mi West 12.7 mph 18.4 mph N/A   Clear
11:15 AM 74.7 °F 35.1 °F 24% 30.13 in 10.0 mi West 18.4 mph 23.0 mph N/A   Clear
11:35 AM 75.7 °F 35.2 °F 23% 30.13 in 10.0 mi West 12.7 mph - N/A   Clear
11:55 AM 75.7 °F 34.9 °F 23% 30.13 in 10.0 mi West 11.5 mph 18.4 mph N/A   Clear
12:15 PM 76.1 °F 35.1 °F 23% 30.13 in 10.0 mi WSW 9.2 mph 18.4 mph N/A   Clear
12:35 PM 77.2 °F 35.4 °F 22% 30.12 in 10.0 mi West 11.5 mph 20.7 mph N/A   Clear
12:55 PM 78.3 °F 33.4 °F 20% 30.12 in 10.0 mi West 12.7 mph 18.4 mph N/A   Clear
1:15 PM 77.9 °F 34.0 °F 20% 30.11 in 10.0 mi WSW 13.8 mph 20.7 mph N/A   Clear
1:35 PM 79.0 °F 34.3 °F 20% 30.10 in 10.0 mi WSW 10.4 mph 20.7 mph N/A   Clear
1:55 PM 80.1 °F 33.3 °F 18% 30.09 in 10.0 mi West 9.2 mph 18.4 mph N/A   Clear
2:15 PM 80.6 °F 30.2 °F 16% 30.08 in 10.0 mi WSW 12.7 mph 16.1 mph N/A   Clear
2:35 PM 80.2 °F 30.9 °F 17% 30.07 in 10.0 mi SW 8.1 mph - N/A   Clear
2:55 PM 81.1 °F 32.2 °F 17% 30.05 in 10.0 mi West 10.4 mph - N/A   Clear
3:15 PM 80.6 °F 32.4 °F 17% 30.05 in 10.0 mi SW 9.2 mph - N/A   Clear
3:35 PM 82.0 °F 32.7 °F 17% 30.04 in 10.0 mi SW 10.4 mph - N/A   Clear
3:55 PM 82.0 °F 32.5 °F 17% 30.04 in 10.0 mi SSW 9.2 mph - N/A   Clear
4:15 PM 82.6 °F 32.5 °F 16% 30.03 in 10.0 mi West 9.2 mph - N/A   Clear
4:35 PM 83.5 °F 31.6 °F 15% 30.03 in 10.0 mi WSW 9.2 mph - N/A   Clear
4:55 PM 82.8 °F 31.5 °F 16% 30.02 in 10.0 mi South 9.2 mph - N/A   Clear
5:15 PM 83.3 °F 32.0 °F 16% 30.03 in 10.0 mi SW 8.1 mph 17.3 mph N/A   Clear
5:35 PM 82.9 °F 28.6 °F 14% 30.03 in 10.0 mi SW 8.1 mph 12.7 mph N/A   Clear
5:55 PM 82.0 °F 28.9 °F 14% 30.03 in 10.0 mi SW 8.1 mph - N/A   Clear
6:15 PM 81.7 °F 29.3 °F 15% 30.04 in 10.0 mi WSW 10.4 mph 17.3 mph N/A   Clear
6:35 PM 80.6 °F 29.5 °F 16% 30.04 in 10.0 mi SW 9.2 mph - N/A   Clear
6:55 PM 79.3 °F 28.4 °F 15% 30.04 in 10.0 mi WSW 8.1 mph - N/A   Clear
7:15 PM 75.6 °F 28.0 °F 17% 30.04 in 10.0 mi WSW 6.9 mph - N/A   Clear
7:35 PM 72.5 °F 26.6 °F 18% 30.05 in 10.0 mi WSW 9.2 mph - N/A   Clear
7:55 PM 69.3 °F 25.7 °F 20% 30.05 in 10.0 mi WSW 8.1 mph - N/A   Clear
8:15 PM 65.1 °F 26.2 °F 23% 30.06 in 10.0 mi WSW 4.6 mph - N/A   Clear
8:35 PM 65.7 °F 26.4 °F 23% 30.06 in 10.0 mi SSW 4.6 mph - N/A   Clear
8:55 PM 65.1 °F 26.6 °F 23% 30.07 in 10.0 mi SW 5.8 mph - N/A   Clear
9:15 PM 64.8 °F 27.0 °F 24% 30.07 in 10.0 mi Calm Calm - N/A   Clear
9:35 PM 62.2 °F 26.6 °F 26% 30.08 in 10.0 mi SSW 5.8 mph - N/A   Clear
9:55 PM 63.3 °F 26.8 °F 25% 30.09 in 10.0 mi Calm Calm - N/A   Clear
10:15 PM 65.3 °F 26.6 °F 23% 30.09 in 10.0 mi Calm Calm - N/A   Clear
10:35 PM 56.1 °F 27.9 °F 34% 30.10 in 10.0 mi WSW 5.8 mph - N/A   Clear
10:55 PM 56.5 °F 27.7 °F 33% 30.10 in 10.0 mi Calm Calm - N/A   Clear
11:15 PM 55.6 °F 28.0 °F 35% 30.10 in 10.0 mi SW 4.6 mph - N/A   Clear
11:35 PM 54.0 °F 27.5 °F 36% 30.11 in 10.0 mi West 3.5 mph - N/A   Clear
11:55 PM 54.5 °F 27.5 °F 35% 30.11 in 10.0 mi SSW 4.6 mph - N/A   Clear